Location: Newark
(45.2500°N, 7.5833°E)
Time: 00:56:49
(UTC+00:00)

Vanguard 3 - Pass Details

Date: 03 February 2020
Orbit: 508 x 3263 km, 33.3° (Epoch: 20 February)

Event Time Altitude Azimuth Distance (km) Brightness Sun altitude
Rises 11:20:59 0° 179° (S) 5,247 12.6 27.9°
Reaches altitude 10° 11:26:23 10° 158° (SSE) 4,797 12.5 28.0°
Maximum altitude 11:33:28 15° 128° (SE) 4,931 11.9 28.1°
Drops below altitude 10° 11:41:52 10° 100° (E) 5,894 11.7 28.2°
Sets 11:49:55 0° 82° (E) 7,183 11.9 28.1°
